Weather in Pashino

Russia / Novosibirsk Oblast     55°09′43″N   82°58′52″E
temp.,
°C
wind,
m/s
gust,
m/s
humid.,
%
clouds,
%
prec.,
mm/h
press.,
hPa
HPBL,
m
3 march, wed
wed301:00−15ssw229798 0.1 101724
04:00−16ssw229796 0.1 101725
07:00−19ssw229989 0.1 101820
10:00−16ssw239692 0.1 1018157
13:00−12ssw359292 0.1 1019372
16:00−11ssw4692100 0.1 1019431
19:00−13ssw369598 0.1 1020107
22:00−14s499675 0.0 1021217
4 march, thu
thu401:00−14ssw6139475 0.1 1021395
04:00−14s7149288 0.0 1020441
07:00−13s7149494 0.3 1020513
10:00−10ssw81590100 0.6 1019606
13:00−7ssw81594100 1.3 1019656
16:00−6ssw81494100 1.2 1017709
19:00−5ssw81594100 2.4 1016824
22:00−4ssw81591100 1.4 1016767
5 march, fri
fri501:00−7s81589100 1.5 1014557
04:00−7s71687100 0.0 1012490
07:00−7s7148489 0.0 1012504
10:00−7ssw81693100 0.1 1010672
13:00−4sw81395100 2.3 1010991
16:00−2wsw8137898 0.5 10131169
19:00−5sw6148499 0.5 1015768
22:00−6sw81693100 1.0 10161231
6 march, sat
sat601:00−6sw71491100 1.4 1018877
04:00−6sw61392100 0.1 1018749
07:00−6ssw71394100 0.8 1018699
10:00−5ssw81595100 2.0 1016797
13:00−4ssw91689100 3.0 1015946
16:00−4sw91585100 0.1 10131009
19:00−5sw91691100 0.3 10121088
22:00−5sw91592100 0.3 1012903
7 march, sun
sun701:00−3sw81493100 0.8 1012937
04:00−3sw71492100 0.3 1013873
07:00−4sw61291100 0.4 1015566
10:00−4ssw61094100 0.1 1015463
13:00−4ssw71395100 1.4 1013560
16:00−2ssw81595100 1.3 1012799
19:00−2ssw71585100 1.5 1012755
22:00−3sw71488100 0.0 1012771